Weather History for KCIN - June, 2014

Change the Weather History Date:

Sunday, June 8, 2014

  Actual Average Record
Temperature  
Mean Temperature 63 °F -  
Max Temperature 73 °F 80 °F 101 °F (1985)
Min Temperature 53 °F 56 °F 39 °F (1978)
Degree Days  
Heating Degree Days 2    
Growing Degree Days 13 (Base 50)    
Moisture  
Dew Point 53 °F    
Average Humidity 68    
Maximum Humidity 94    
Minimum Humidity 44    
Precipitation  
Precipitation 0.00 in - - ()
Sea Level Pressure  
Sea Level Pressure 30.04 in    
Wind  
Wind Speed 10 mph (ENE)    
Max Wind Speed 16 mph    
Max Gust Speed 24 mph    
Visibility 10 miles    
Events      
Averages and records for this station are not official NWS values.
T = Trace of Precipitation, MM = Missing Value Source: NWS Daily Summary

Daily Weather History Graph

Daily Weather History Graph

Search for Another Location

Airport or City:

Trip Planner

Search our weather history database for the weather conditions in past years. The results will help you decide how hot, cold, wet, or windy it might be!

Date:

Astronomy

Jun. 08, 2014 Rise Set
Actual Time 5:43 AM CDT 8:53 PM CDT
Civil Twilight 5:09 AM CDT 9:27 PM CDT
Nautical Twilight 4:25 AM CDT 10:11 PM CDT
Astronomical Twilight 3:33 AM CDT 11:03 PM CDT
Moon 4:08 PM CDT (6/8) 2:41 AM CDT (6/8)
Length of Visible Light 16h 18m
Length of Day
15h 09m
Waxing Gibbous, 77% of the Moon is Illuminated
Jun 8
Waxing Gibbous
Jun 12
Full
Jun 19
Last Quarter
Jun 27
New
Jul 5
First Quarter

Hourly Weather History & Observations

Time (CDT) Temp. Dew Point Humidity Pressure Visibility Wind Dir Wind Speed Gust Speed Precip Events Conditions
12:15 AM 59.0 °F 53.6 °F 82% 30.05 in 10.0 mi North 12.7 mph - N/A   Overcast
12:35 AM 59.0 °F 53.6 °F 82% 30.05 in 10.0 mi North 10.4 mph - N/A   Overcast
12:55 AM 59.0 °F 53.6 °F 82% 30.05 in 10.0 mi North 9.2 mph - N/A   Overcast
1:15 AM 57.2 °F 53.6 °F 88% 30.05 in 10.0 mi North 9.2 mph - N/A   Mostly Cloudy
1:35 AM 57.2 °F 53.6 °F 88% 30.05 in 10.0 mi North 8.1 mph - N/A   Partly Cloudy
1:55 AM 57.2 °F 53.6 °F 88% 30.05 in 10.0 mi North 8.1 mph - N/A   Clear
2:15 AM 55.4 °F 53.6 °F 94% 30.05 in 10.0 mi NNW 6.9 mph - N/A   Clear
2:35 AM 55.4 °F 53.6 °F 94% 30.05 in 10.0 mi North 9.2 mph - N/A   Clear
2:55 AM 55.4 °F 53.6 °F 94% 30.05 in 10.0 mi North 8.1 mph - N/A   Mostly Cloudy
3:15 AM 55.4 °F 53.6 °F 94% 30.05 in 10.0 mi North 9.2 mph - N/A   Scattered Clouds
3:35 AM 55.4 °F 53.6 °F 94% 30.04 in 10.0 mi North 9.2 mph - N/A   Clear
3:55 AM 55.4 °F 51.8 °F 88% 30.05 in 10.0 mi North 9.2 mph - N/A   Clear
4:15 AM 53.6 °F 51.8 °F 94% 30.05 in 10.0 mi North 9.2 mph - N/A   Clear
4:35 AM 53.6 °F 51.8 °F 94% 30.05 in 10.0 mi North 6.9 mph - N/A   Clear
4:55 AM 53.6 °F 51.8 °F 94% 30.06 in 10.0 mi North 8.1 mph - N/A   Clear
5:15 AM 53.6 °F 51.8 °F 94% 30.05 in 10.0 mi North 9.2 mph - N/A   Clear
5:35 AM 53.6 °F 51.8 °F 94% 30.06 in 10.0 mi North 8.1 mph - N/A   Clear
5:55 AM 53.6 °F 51.8 °F 94% 30.06 in 10.0 mi North 9.2 mph - N/A   Clear
6:15 AM 53.6 °F 51.8 °F 94% 30.07 in 10.0 mi North 6.9 mph - N/A   Clear
6:35 AM 53.6 °F 51.8 °F 94% 30.07 in 10.0 mi North 9.2 mph - N/A   Clear
6:55 AM 53.6 °F 51.8 °F 94% 30.09 in 10.0 mi North 6.9 mph - N/A   Clear
7:15 AM 55.4 °F 51.8 °F 88% 30.09 in 10.0 mi NNE 8.1 mph - N/A   Clear
7:35 AM 55.4 °F 51.8 °F 88% 30.10 in 10.0 mi NNE 9.2 mph - N/A   Clear
7:55 AM 57.2 °F 51.8 °F 82% 30.10 in 10.0 mi NNE 10.4 mph - N/A   Clear
8:15 AM 59.0 °F 50.0 °F 72% 30.10 in 10.0 mi NE 12.7 mph - N/A   Clear
8:35 AM 60.8 °F 50.0 °F 68% 30.10 in 10.0 mi NE 12.7 mph - N/A   Clear
8:55 AM 60.8 °F 50.0 °F 68% 30.10 in 10.0 mi NE 12.7 mph - N/A   Clear
9:15 AM 62.6 °F 48.2 °F 59% 30.10 in 10.0 mi ENE 13.8 mph - N/A   Clear
9:35 AM 64.4 °F 44.6 °F 49% 30.09 in 10.0 mi ENE 16.1 mph 21.9 mph N/A   Clear
9:55 AM 66.2 °F 44.6 °F 46% 30.09 in 10.0 mi NE 12.7 mph 18.4 mph N/A   Clear
10:15 AM 66.2 °F 44.6 °F 46% 30.08 in 10.0 mi ENE 15.0 mph - N/A   Clear
10:35 AM 68.0 °F 46.4 °F 46% 30.08 in 10.0 mi East 16.1 mph 24.2 mph N/A   Clear
10:55 AM 68.0 °F 48.2 °F 49% 30.08 in 10.0 mi East 15.0 mph 24.2 mph N/A   Clear
11:15 AM 68.0 °F 48.2 °F 49% 30.08 in 10.0 mi East 15.0 mph - N/A   Clear
11:35 AM 69.8 °F 50.0 °F 49% 30.08 in 10.0 mi East 12.7 mph 19.6 mph N/A   Clear
11:55 AM 69.8 °F 50.0 °F 49% 30.07 in 10.0 mi East 10.4 mph 17.3 mph N/A   Clear
12:15 PM 69.8 °F 50.0 °F 49% 30.07 in 10.0 mi ESE 11.5 mph - N/A   Clear
12:35 PM 69.8 °F 50.0 °F 49% 30.07 in 10.0 mi East 11.5 mph - N/A   Clear
12:55 PM 69.8 °F 50.0 °F 49% 30.07 in 10.0 mi ESE 8.1 mph 16.1 mph N/A   Clear
1:15 PM 71.6 °F 50.0 °F 46% 30.07 in 10.0 mi ENE 8.1 mph 15.0 mph N/A   Clear
1:35 PM 71.6 °F 50.0 °F 46% 30.06 in 10.0 mi East 10.4 mph 17.3 mph N/A   Clear
1:55 PM 71.6 °F 50.0 °F 46% 30.04 in 10.0 mi ESE 11.5 mph - N/A   Clear
2:15 PM 73.4 °F 50.0 °F 44% 30.04 in 10.0 mi East 8.1 mph - N/A   Clear
2:35 PM 71.6 °F 50.0 °F 46% 30.04 in 10.0 mi Variable 6.9 mph 16.1 mph N/A   Clear
2:55 PM 73.4 °F 51.8 °F 47% 30.03 in 10.0 mi East 9.2 mph - N/A   Clear
3:15 PM 73.4 °F 51.8 °F 47% 30.02 in 10.0 mi ESE 9.2 mph - N/A   Scattered Clouds
3:35 PM 73.4 °F 51.8 °F 47% 30.01 in 10.0 mi East 8.1 mph - N/A   Scattered Clouds
3:55 PM 73.4 °F 53.6 °F 50% 30.01 in 10.0 mi East 9.2 mph - N/A   Mostly Cloudy
4:15 PM 73.4 °F 51.8 °F 47% 30.00 in 10.0 mi Variable 6.9 mph 13.8 mph N/A   Scattered Clouds
4:35 PM 73.4 °F 53.6 °F 50% 30.00 in 10.0 mi East 8.1 mph 13.8 mph N/A   Scattered Clouds
4:55 PM 73.4 °F 51.8 °F 47% 30.00 in 10.0 mi ESE 8.1 mph - N/A   Mostly Cloudy
5:15 PM 73.4 °F 51.8 °F 47% 29.99 in 10.0 mi SE 10.4 mph - N/A   Mostly Cloudy
5:35 PM 73.4 °F 53.6 °F 50% 29.99 in 10.0 mi South 10.4 mph - N/A   Scattered Clouds
5:55 PM 73.4 °F 53.6 °F 50% 29.99 in 10.0 mi ESE 10.4 mph - N/A   Mostly Cloudy
6:15 PM 71.6 °F 53.6 °F 53% 29.98 in 10.0 mi SSE 8.1 mph - N/A   Mostly Cloudy
6:35 PM 73.4 °F 53.6 °F 50% 29.99 in 10.0 mi SSE 8.1 mph - N/A   Partly Cloudy
6:55 PM 73.4 °F 53.6 °F 50% 29.99 in 10.0 mi SE 6.9 mph - N/A   Clear
7:15 PM 73.4 °F 53.6 °F 50% 29.99 in 10.0 mi SSE 6.9 mph - N/A   Scattered Clouds
7:35 PM 71.6 °F 53.6 °F 53% 29.99 in 10.0 mi SSE 8.1 mph - N/A   Scattered Clouds
7:55 PM 71.6 °F 53.6 °F 53% 29.98 in 10.0 mi SSE 8.1 mph - N/A   Scattered Clouds
8:15 PM 69.8 °F 55.4 °F 60% 29.99 in 10.0 mi SSE 9.2 mph - N/A   Scattered Clouds
8:35 PM 69.8 °F 57.2 °F 64% 30.00 in 10.0 mi SSE 8.1 mph - N/A   Mostly Cloudy
8:55 PM 69.8 °F 57.2 °F 64% 30.00 in 10.0 mi SSE 6.9 mph - N/A   Overcast
9:15 PM 68.0 °F 57.2 °F 68% 29.99 in - SE 6.9 mph - N/A   Overcast
9:35 PM 68.0 °F 57.2 °F 68% 30.00 in 10.0 mi SSE 10.4 mph - N/A   Overcast
9:55 PM 68.0 °F 59.0 °F 73% 30.01 in 10.0 mi SSE 6.9 mph - N/A   Overcast
10:15 PM 66.2 °F 59.0 °F 78% 30.01 in 10.0 mi SSE 8.1 mph - N/A   Overcast
10:35 PM 66.2 °F 59.0 °F 78% 30.01 in 10.0 mi SSE 6.9 mph - N/A   Mostly Cloudy
10:55 PM 64.4 °F 59.0 °F 83% 30.00 in 10.0 mi SSE 5.8 mph - N/A   Clear
11:15 PM 62.6 °F 59.0 °F 88% 30.00 in 10.0 mi Calm Calm - N/A   Clear
11:35 PM 62.6 °F 59.0 °F 88% 29.99 in 10.0 mi ESE 3.5 mph - N/A   Clear
11:55 PM 60.8 °F 59.0 °F 94% 29.98 in 10.0 mi ESE 6.9 mph - N/A   Clear